File backup.txt content, last update Wednesday September 28 2022, 13:03:18


1664335446 Temp=33.41*C Humidity=24.40% Pressure=100695.61Pa
1664335506 Temp=33.49*C Humidity=24.51% Pressure=100697.42Pa
1664335567 Temp=33.46*C Humidity=24.41% Pressure=100693.94Pa
1664335626 Temp=33.38*C Humidity=24.46% Pressure=100695.64Pa
1664335686 Temp=33.40*C Humidity=24.87% Pressure=100692.91Pa
1664335746 Temp=33.55*C Humidity=24.83% Pressure=100687.30Pa
1664335806 Temp=33.69*C Humidity=24.41% Pressure=100688.42Pa
1664335866 Temp=33.58*C Humidity=24.23% Pressure=100689.19Pa
1664335926 Temp=33.56*C Humidity=24.49% Pressure=100691.70Pa
1664335986 Temp=33.56*C Humidity=24.18% Pressure=100691.52Pa
1664336046 Temp=33.62*C Humidity=24.36% Pressure=100693.55Pa
1664336106 Temp=33.55*C Humidity=24.04% Pressure=100693.11Pa
1664336166 Temp=33.53*C Humidity=24.21% Pressure=100693.68Pa
1664336226 Temp=33.56*C Humidity=24.63% Pressure=100691.92Pa
1664336286 Temp=33.69*C Humidity=25.03% Pressure=100678.48Pa
1664336346 Temp=33.82*C Humidity=24.79% Pressure=100687.65Pa
1664336406 Temp=33.95*C Humidity=24.79% Pressure=100684.87Pa
1664336466 Temp=34.05*C Humidity=24.79% Pressure=100683.02Pa
1664336526 Temp=33.98*C Humidity=24.09% Pressure=100684.12Pa
1664336586 Temp=33.95*C Humidity=23.98% Pressure=100680.83Pa
1664336646 Temp=33.91*C Humidity=24.48% Pressure=100675.46Pa
1664336706 Temp=33.91*C Humidity=24.76% Pressure=100676.05Pa
1664336766 Temp=33.72*C Humidity=24.56% Pressure=100676.53Pa
1664336826 Temp=33.75*C Humidity=24.88% Pressure=100669.73Pa
1664336887 Temp=33.88*C Humidity=24.63% Pressure=100669.58Pa
1664336946 Temp=34.05*C Humidity=24.73% Pressure=100671.16Pa
1664337006 Temp=34.18*C Humidity=24.51% Pressure=100666.01Pa
1664337067 Temp=34.08*C Humidity=24.18% Pressure=100665.17Pa
1664337126 Temp=34.09*C Humidity=24.68% Pressure=100665.64Pa
1664337186 Temp=34.20*C Humidity=24.75% Pressure=100658.03Pa
1664337246 Temp=34.18*C Humidity=24.38% Pressure=100662.08Pa
1664337307 Temp=34.25*C Humidity=24.38% Pressure=100660.16Pa
1664337366 Temp=34.35*C Humidity=24.44% Pressure=100657.40Pa
1664337426 Temp=34.23*C Humidity=24.27% Pressure=100649.63Pa
1664337486 Temp=34.23*C Humidity=24.44% Pressure=100653.86Pa
1664337546 Temp=34.32*C Humidity=23.87% Pressure=100653.01Pa
1664337606 Temp=34.43*C Humidity=23.80% Pressure=100653.23Pa
1664337667 Temp=34.58*C Humidity=23.66% Pressure=100649.84Pa
1664337727 Temp=34.67*C Humidity=23.34% Pressure=100655.46Pa
1664337786 Temp=34.72*C Humidity=23.49% Pressure=100648.18Pa
Showing last 40 lines from file [/srv/app/pi-web01/chroot/pi-ws01/var/backup.txt] (60 total lines).

Station Logs

File Name
sensor.txt
backup.txt
outage.log
outlier.log
rrd.log
pi-solar.log
Display Limit